Location: Winthrop
(48.4780°N, 120.1850°W)
Time: 12:08:47
(UTC-07:00)

Explorer 7 - Visible Passes

Search period start: 30 May 2024 00:00
Search period end: 09 June 2024 00:00
Orbit: 467 x 624 km, 50.3° (Epoch: 30 May)

Date Brightness Start Highest point End Pass type
(mag) Time Alt. Az. Time Alt. Az. Time Alt. Az.
30 May 6.9 00:02:46 10° WNW 00:06:32 67° N 00:10:28 10° E visible
30 May 6.6 01:42:26 10° WNW 01:46:16 61° SSW 01:47:42 36° SE visible
30 May 8.9 03:22:54 10° W 03:23:03 11° W 03:23:03 11° W visible
30 May 6.7 22:16:03 10° W 22:19:44 77° NNW 22:23:34 10° ENE visible
30 May 6.8 23:55:51 10° WNW 23:59:37 70° N 00:03:33 10° E visible
31 May 6.8 01:35:32 10° WNW 01:39:02 49° SW 01:39:02 49° SW visible
31 May 6.8 22:09:07 10° W 22:12:48 71° N 22:16:37 10° ENE visible
31 May 6.7 23:48:54 10° WNW 23:52:40 76° NNE 23:55:44 16° E visible
01 Jun 7.5 01:28:37 10° W 01:31:14 33° WSW 01:31:14 33° WSW visible
01 Jun 6.9 22:02:11 10° W 22:05:51 67° N 22:09:38 10° ENE visible
01 Jun 6.6 23:41:55 10° WNW 23:45:42 83° NNE 23:48:12 21° ESE visible
02 Jun 8.1 01:21:42 10° W 01:23:43 24° WSW 01:23:43 24° WSW visible
02 Jun 7.0 21:55:13 10° W 21:58:52 65° N 22:02:39 10° E visible
02 Jun 6.5 23:34:56 10° WNW 23:38:42 87° SSW 23:40:49 26° ESE visible
03 Jun 8.5 01:14:50 10° W 01:16:19 19° WSW 01:16:19 19° WSW visible
03 Jun 7.0 21:48:14 10° W 21:51:54 64° N 21:55:39 10° E visible
03 Jun 6.5 23:27:56 10° WNW 23:31:40 76° SSW 23:33:30 29° ESE visible
04 Jun 8.8 01:08:01 10° W 01:09:01 15° WSW 01:09:01 15° WSW visible
04 Jun 6.9 21:41:14 10° W 21:44:53 65° N 21:48:39 10° E visible
04 Jun 6.6 23:20:55 10° WNW 23:24:37 64° SSW 23:26:14 31° SE visible
05 Jun 9.0 01:01:17 10° W 01:01:46 12° WSW 01:01:46 12° WSW visible
05 Jun 6.9 21:34:12 10° WNW 21:37:51 68° N 21:41:37 10° E visible
05 Jun 6.8 23:13:53 10° WNW 23:17:31 53° SSW 23:19:01 31° SE visible
06 Jun 7.1 23:06:51 10° W 23:10:23 43° SSW 23:11:50 29° SSE visible
07 Jun 7.4 22:59:49 10° W 23:03:13 34° SSW 23:04:39 25° S visible
08 Jun 7.8 22:52:49 10° W 22:56:02 28° SW 22:57:32 21° S visible
